Flag for U.S.A. Weather past 2 weeks in Sunrise, Florida, U.S.A.

Now
74 °F

Passing clouds.


Feels Like: 74 °F
Forecast: 72 / 83 °F
Wind: 8 mph from Southeast

Location: Fort Lauderdale Executive Airport

Current Time: Mar 4, 2015 at 6:39:54 AM

Latest Report: Mar 4, 2015 at 5:53 AM


Visibility: 10 mi

Pressure: 30.12 "Hg

Humidity: 79%

Dew point: 67 °F

Location of SunriseLocation

Historic Weather in Sunrise — Graph

°F

Sunrise temperature yesterday

Maximum temperature yesterday: 82 °F (at 12:53 PM)
Minimum temperature yesterday: 71 °F (at 2:53 AM)
Average temperature yesterday: 76 °F

Past Weeks' High & Low Weather Summary

 TemperatureHumidityPressure
High87 °F (Feb 24, 2:53 PM)100% (Feb 23, 4:53 AM)30.36 "Hg (Feb 23, 4:53 AM)
Low40 °F (Feb 20, 4:53 AM)18% (Feb 19, 3:53 PM)29.82 "Hg (Feb 26, 2:53 AM)
Average70 °F72%30.13 "Hg
* Reported Feb 17 4:53 AM — Mar 4 4:53 AM, Sunrise, Weather by CustomWeather, © 2015

Note: Actual official high and low records may vary slightly from our data, if they occured in-between our weather recording intervals... More about our weather records

Advertising

Sunrise weather history for previous 24 hours

 ConditionsComfort  
Time TempWeatherWind HumidityBarometerVisibility
4:53 AM
Wed, Mar 4
74 °FPassing clouds.8 mph82%30.11 "Hg10 mi
3:53 AM74 °FClear.10 mph82%30.10 "Hg10 mi
2:53 AM74 °FPassing clouds.9 mph79%30.11 "Hg10 mi
1:53 AM74 °FClear.10 mph79%30.12 "Hg10 mi
12:53 AM75 °FPassing clouds.14 mph79%30.14 "Hg10 mi
11:53 PM
Tue, Mar 3
75 °FPassing clouds.14 mph79%30.15 "Hg10 mi
10:53 PM75 °FClear.14 mph76%30.16 "Hg10 mi
9:53 PM75 °FClear.12 mph76%30.17 "Hg10 mi
8:53 PM76 °FPassing clouds.12 mph77%30.17 "Hg10 mi
7:53 PM76 °FPassing clouds.15 mph77%30.15 "Hg10 mi
6:53 PM76 °FPassing clouds.15 mph74%30.14 "Hg10 mi
6:00 PM76 °FPartly sunny.13 mph72%30.13 "Hg10 mi
4:53 PM78 °FScattered clouds.15 mph62%30.13 "Hg10 mi
3:53 PM79 °FBroken clouds.15 mph62%30.13 "Hg10 mi
2:53 PM80 °FScattered clouds.16 mph58%30.14 "Hg10 mi
1:53 PM81 °FScattered clouds.16 mph54%30.16 "Hg10 mi
12:53 PM82 °FScattered clouds.14 mph56%30.19 "Hg10 mi
11:53 AM80 °FScattered clouds.18 mph62%30.21 "Hg10 mi
10:53 AM80 °FScattered clouds.17 mph62%30.22 "Hg10 mi
9:53 AM79 °FScattered clouds.18 mph60%30.23 "Hg10 mi
8:53 AM78 °FScattered clouds.17 mph66%30.22 "Hg10 mi
7:53 AM74 °FScattered clouds.10 mph76%30.20 "Hg10 mi
6:53 AM71 °FScattered clouds.7 mph84%30.19 "Hg10 mi
Weather by CustomWeather, © 2015

See weather overviewHow to use our weather pages